TimeWET,TemperatureF,Dew PointF,Humidity,Sea Level PressureIn,VisibilityMPH,Wind Direction,Wind SpeedMPH,Gust SpeedMPH,PrecipitationIn,Events,Conditions,WindDirDegrees,DateUTC
12:00 AM,67,37,22,,12,WSW,8.1,,,,Scattered Clouds,250,2012-10-15 00:00:00
12:00 AM,66.2,37.4,35,29.95,6.2,WSW,8.1,-,N/A,,Partly Cloudy,250,2012-10-15 00:00:00
1:00 AM,66.2,33.8,30,29.92,6.2,West,8.1,-,N/A,,Partly Cloudy,270,2012-10-15 01:00:00
3:00 AM,63,34,22,,12,WNW,3.5,,,,Scattered Clouds,290,2012-10-15 03:00:00
4:00 AM,59.0,35.6,42,29.92,6.2,West,6.9,-,N/A,,Partly Cloudy,270,2012-10-15 04:00:00
5:00 AM,59.0,35.6,42,29.92,6.2,WSW,8.1,-,N/A,,Partly Cloudy,250,2012-10-15 05:00:00
6:00 AM,59,36,30,,12,SW,2.3,,,,Clear,230,2012-10-15 06:00:00
6:00 AM,59.0,35.6,42,29.92,-9999.0,Variable,2.3,-,N/A,,Clear,0,2012-10-15 06:00:00
7:00 AM,55.4,35.6,47,29.95,-9999.0,NW,5.8,-,N/A,,Clear,310,2012-10-15 07:00:00
8:00 AM,60.8,37.4,42,29.95,-9999.0,Calm,Calm,-,N/A,,Clear,0,2012-10-15 08:00:00
9:00 AM,69,33,16,,12,WSW,5.8,,,,Clear,250,2012-10-15 09:00:00
9:00 AM,69.8,32.0,25,29.98,-9999.0,WSW,5.8,-,N/A,,Clear,250,2012-10-15 09:00:00
10:00 AM,73.4,30.2,20,29.98,-9999.0,SW,2.3,-,N/A,,Clear,230,2012-10-15 10:00:00
11:00 AM,75.2,28.4,18,29.98,-9999.0,SSW,3.5,-,N/A,,Clear,210,2012-10-15 11:00:00
12:00 PM,79,28,7,,12,WSW,1.2,,,,Clear,240,2012-10-15 12:00:00
12:00 PM,78.8,28.4,16,29.95,-9999.0,WSW,1.2,-,N/A,,Clear,240,2012-10-15 12:00:00
1:00 PM,80.6,28.4,15,29.95,-9999.0,South,3.5,-,N/A,,Clear,180,2012-10-15 13:00:00
2:00 PM,82.4,24.8,12,29.92,-9999.0,SSW,5.8,-,N/A,,Clear,210,2012-10-15 14:00:00
3:00 PM,85,42,13,,12,SSE,4.6,,,,Scattered Clouds,160,2012-10-15 15:00:00
3:00 PM,84.2,23.0,11,29.89,6.2,SSE,4.6,-,N/A,,Partly Cloudy,160,2012-10-15 15:00:00
4:00 PM,84.2,24.8,11,29.89,6.2,SSW,4.6,-,N/A,,Partly Cloudy,210,2012-10-15 16:00:00
5:00 PM,84.2,26.6,12,29.92,6.2,West,9.2,-,N/A,,Partly Cloudy,270,2012-10-15 17:00:00
6:00 PM,80,30,8,,12,West,13.8,,,,,280,2012-10-15 18:00:00
7:00 PM,77.0,39.2,26,29.95,-9999.0,West,4.6,-,N/A,,Clear,280,2012-10-15 19:00:00
8:00 PM,73.4,39.2,29,29.98,-9999.0,WSW,4.6,-,N/A,,Clear,240,2012-10-15 20:00:00
9:00 PM,73,34,14,,12,West,5.8,,,,,260,2012-10-15 21:00:00
9:00 PM,73.4,33.8,23,29.98,-9999.0,West,5.8,-,N/A,,Clear,260,2012-10-15 21:00:00
10:00 PM,71.6,30.2,22,30.01,-9999.0,SSW,3.5,-,N/A,,Clear,210,2012-10-15 22:00:00
11:00 PM,66.2,30.2,26,30.01,-9999.0,WNW,2.3,-,N/A,,Clear,300,2012-10-15 23:00:00